[[{"header":{"parameterUnit":"m.s-1","parameterCategory":1,"la1":30.2991,"la2":30.254,"lo1":-89.0895,"lo2":-89.0444,"dy":0.0017,"dx":0.0017,"nx":28,"ny":28,"refTime":"2024-10-09T03:00:00:Z","depth":0,"parameterNumber":2,"parameterNumberName":"U-component_of_WINDS"},"data":[0,0,0,0,0,0,0,0,0,0,0,0,0,0,0,0,0,0,0,0,0,0,0,0,0,0,0,0,0,0,0,0,0,0,0,0,0,0,0,0,0,0,0,0,0,0,0,0,0,0,0,0,0,0,0,0,0,0,-1.4127,-1.4127,0,-1.4165,-1.4166,-1.4166,-1.4108,-1.4106,-1.4104,-1.4102,-1.4144,-1.4147,-1.4149,0,0,0,0,0,0,0,0,0,0,0,0,0,-1.4006,-1.4008,-1.4127,-1.4127,-1.4128,-1.4165,-1.4166,-1.4166,-1.4108,-1.4106,-1.4103,-1.4101,-1.4143,-1.4146,-1.415,0,0,0,0,0,0,0,0,0,0,0,0,0,-1.4053,-1.4009,-1.4127,-1.4103,-1.4102,-1.4165,-1.4166,-1.4166,-1.4109,-1.4106,-1.4103,-1.41,-1.4141,-1.4146,-1.415,-1.4239,0,0,-1.4164,-1.4166,0,0,0,0,0,0,0,0,-1.405,-1.4057,-1.4106,-1.4105,-1.4103,-1.4128,-1.4138,-1.4191,-1.4109,-1.4106,-1.4102,-1.4098,-1.4141,-1.4146,-1.4159,-1.4241,-1.4243,-1.4164,-1.4167,-1.4169,-1.417,0,0,0,0,0,0,0,-1.4047,-1.4055,-1.4142,-1.4107,-1.4105,-1.4092,-1.4095,-1.4148,-1.414,-1.4106,-1.4102,-1.4107,-1.414,-1.4155,-1.416,-1.4243,-1.4164,-1.4168,-1.4171,-1.4173,-1.4401,-1.4404,0,0,0,0,0,0,-1.4046,-1.4053,-1.4141,-1.4143,-1.4069,-1.4096,-1.41,-1.4124,-1.414,-1.4139,-1.411,-1.4104,-1.4149,-1.4155,-1.4161,-1.4267,-1.4169,-1.4173,-1.4176,-1.4397,-1.4401,-1.4405,0,0,0,0,0,0,-1.4044,-1.4055,-1.4139,-1.4097,-1.4107,-1.4102,-1.4129,-1.4126,-1.4141,-1.4142,-1.4141,-1.4127,-1.4147,-1.4155,-1.422,-1.4268,-1.4175,-1.4179,-1.4393,-1.4398,-1.4403,-1.448,0,0,0,0,0,0,-1.4041,-1.4054,-1.4088,-1.4098,-1.4109,-1.4197,-1.4131,-1.4129,-1.4149,-1.4142,-1.4158,-1.4158,-1.4145,-1.4214,-1.4225,-1.4273,-1.4183,-1.4389,-1.4396,-1.4402,-1.4473,-1.4487,-1.4499,0,0,0,0,0,-1.4037,-1.4108,-1.409,-1.41,-1.4151,-1.42,-1.4206,-1.419,-1.4153,-1.4187,-1.4187,-1.4157,-1.426,-1.4221,-1.4233,-1.4283,-1.4386,-1.4394,-1.4401,-1.4467,-1.4484,-1.4498,0,0,0,0,0,0,-1.4104,-1.4109,-1.4089,-1.4165,-1.4183,-1.419,-1.4232,-1.4208,-1.4237,-1.423,-1.4208,-1.4212,-1.4283,-1.4289,-1.4245,-1.437,-1.4317,-1.4328,-1.4364,-1.438,-1.4392,-1.439,-1.4187,0,0,0,0,0,-1.4128,-1.4167,-1.4169,-1.4237,-1.4246,-1.4238,-1.4259,-1.4244,-1.4262,-1.4269,-1.4274,-1.4293,-1.433,-1.4355,-1.4388,-1.4473,-1.4476,-1.4513,-1.4526,-1.4536,-1.4546,-1.4592,-1.4609,-1.443,-1.443,-1.4429,0,0,-1.4178,-1.4185,-1.4211,-1.425,-1.4262,-1.4304,-1.4245,-1.4291,-1.4322,-1.4276,-1.4339,-1.4343,-1.4363,-1.4438,-1.4472,-1.4446,-1.4596,-1.4546,-1.4554,-1.4558,-1.4602,-1.4619,-1.4634,-1.4435,-1.4434,-1.4433,0,0,-1.429,-1.4299,-1.4356,-1.4369,-1.4387,-1.4381,-1.4395,-1.4406,-1.4407,-1.4469,-1.4435,-1.4472,-1.4535,-1.4551,-1.4567,-1.4685,-1.4659,-1.4696,-1.4764,-1.4809,-1.4823,-1.4836,-1.488,-1.4895,-1.4705,-1.4706,-1.4706,0,-1.435,-1.4411,-1.4389,-1.4438,-1.4457,-1.4416,-1.4475,-1.4489,-1.4517,-1.4532,-1.4501,-1.458,-1.459,-1.467,-1.4698,-1.4712,-1.4728,-1.4695,-1.4823,-1.4835,-1.4847,-1.4888,-1.4904,-1.471,-1.471,-1.4709,-1.4709,0,-1.4484,-1.4527,-1.4571,-1.4599,-1.4623,-1.4677,-1.4664,-1.4691,-1.4674,-1.4671,-1.4735,-1.4745,-1.4781,-1.4798,-1.4782,-1.4876,-1.4859,-1.4826,-1.4773,-1.4869,-1.4907,-1.4923,-1.4717,-1.4715,-1.4714,-1.4713,0,0,-1.4642,-1.4657,-1.4674,-1.4686,-1.4703,-1.4736,-1.4788,-1.4821,-1.4845,-1.4866,-1.491,-1.4964,-1.4934,-1.4953,-1.4938,-1.4977,-1.5072,-1.494,-1.494,-1.4966,-1.5177,-1.5203,-1.5221,-1.5053,-1.5056,-1.5058,-1.5175,0,-1.4755,-1.4845,-1.4827,-1.4915,-1.4954,-1.4915,-1.4961,-1.4977,-1.4975,-1.5009,-1.5008,-1.5047,-1.5003,-1.5014,-1.5052,-1.5052,-1.5114,-1.5043,-1.5096,-1.5098,-1.5094,-1.5241,-1.5269,-1.5379,-1.519,-1.5193,-1.5195,0,-1.49,-1.4925,-1.5017,-1.5028,-1.5044,-1.5085,-1.5115,-1.5147,-1.5164,-1.516,-1.5181,-1.5159,-1.5211,-1.5156,-1.5229,-1.5181,-1.5201,-1.5205,-1.5209,-1.5215,-1.5154,-1.5253,-1.5413,-1.5431,-1.5218,-1.5216,-1.5214,0,-1.5008,-1.5065,-1.5128,-1.5139,-1.5153,-1.5183,-1.519,-1.5203,-1.5225,-1.5251,-1.5265,-1.5297,-1.5315,-1.5341,-1.5328,-1.5289,-1.5404,-1.5347,-1.5404,-1.5405,-1.5432,-1.5431,-1.56,-1.5441,-1.5441,-1.5441,-1.544,0,-1.5138,-1.5196,-1.5177,-1.5216,-1.528,-1.5258,-1.5323,-1.5325,-1.5338,-1.5377,-1.5344,-1.5382,-1.5362,-1.5398,-1.5389,-1.5451,-1.5459,-1.5459,-1.5456,-1.5463,-1.5464,-1.5478,-1.5471,-1.5445,-1.5444,-1.5443,-1.5443,0,-1.5271,-1.526,-1.5326,-1.5332,-1.5335,-1.5383,-1.5389,-1.5425,-1.542,-1.5471,-1.5481,-1.5475,-1.5516,-1.5505,-1.555,-1.5543,-1.5623,-1.5609,-1.5618,-1.5615,-1.5673,-1.5669,-1.5859,-1.5883,-1.5707,-1.5709,-1.571,0,-1.5355,-1.5399,-1.541,-1.5434,-1.5443,-1.5481,-1.5503,-1.5483,-1.5507,-1.553,-1.5564,-1.5602,-1.5631,-1.5699,-1.5699,-1.5733,-1.5721,-1.5786,-1.5727,-1.5733,-1.5725,-1.5723,-1.5728,-1.5798,-1.58,-1.5802,-1.5803,0,-1.5507,-1.55,-1.5532,-1.5562,-1.5589,-1.5612,-1.5632,-1.5653,-1.5635,-1.5664,-1.5705,-1.5728,-1.5773,-1.5812,-1.5843,-1.5851,-1.5826,-1.5821,-1.5837,-1.5846,-1.5849,-1.585,-1.5652,-1.5818,-1.5816,-1.5815,-1.5815,-1.5814,-1.562,-1.5658,-1.5671,-1.5708,-1.5721,-1.5741,-1.5776,-1.5775,-1.5809,-1.5844,-1.583,-1.5878,-1.5893,-1.5933,-1.5944,-1.5982,-1.5958,-1.5979,-1.5985,-1.5992,-1.6,-1.5841,-1.5987,-1.5987,-1.5986,-1.5986,-1.5986,0,-1.5772,-1.5779,-1.5813,-1.5842,-1.5871,-1.5842,-1.5863,-1.589,-1.5932,-1.5948,-1.5978,-1.6025,-1.6063,-1.6065,-1.61,-1.613,-1.6119,-1.614,-1.6139,-1.6141,-1.6018,-1.6003,-1.6148,-1.6148,-1.6148,-1.6148,-1.6148,-1.6148,-1.5855,-1.5917,-1.5911,-1.598,-1.5986,-1.6032,-1.6046,-1.6065,-1.6078,-1.6132,-1.6163,-1.6163,-1.6174,-1.621,-1.6243,-1.6243,-1.6258,-1.6284,-1.628,-1.6166,-1.615,-1.6134,-1.612,-1.6287,-1.6287,-1.64,-1.6401,-1.6401]},{"header":{"parameterUnit":"m.s-1","parameterCategory":1,"la1":30.2991,"la2":30.254,"lo1":-89.0895,"lo2":-89.0444,"dy":0.0017,"dx":0.0017,"nx":28,"ny":28,"refTime":"2024-10-09T03:00:00:Z","depth":0,"parameterNumber":3,"parameterNumberName":"V-component_of_WINDS"},"data":[0,0,0,0,0,0,0,0,0,0,0,0,0,0,0,0,0,0,0,0,0,0,0,0,0,0,0,0,0,0,0,0,0,0,0,0,0,0,0,0,0,0,0,0,0,0,0,0,0,0,0,0,0,0,0,0,0,0,-4.3992,-4.3992,0,-4.4048,-4.4048,-4.4049,-4.3965,-4.3963,-4.396,-4.3957,-4.4011,-4.4015,-4.4019,0,0,0,0,0,0,0,0,0,0,0,0,0,-4.381,-4.3813,-4.3992,-4.3992,-4.3993,-4.4048,-4.4048,-4.4049,-4.3966,-4.3962,-4.3959,-4.3956,-4.401,-4.4015,-4.402,0,0,0,0,0,0,0,0,0,0,0,0,0,-4.3879,-4.3815,-4.3991,-4.3958,-4.3956,-4.4047,-4.4048,-4.4049,-4.3967,-4.3962,-4.3958,-4.3954,-4.4008,-4.4014,-4.402,-4.4146,0,0,-4.404,-4.4042,0,0,0,0,0,0,0,0,-4.3876,-4.3886,-4.3962,-4.3961,-4.3958,-4.3995,-4.4004,-4.4082,-4.3968,-4.3963,-4.3957,-4.3952,-4.4009,-4.4015,-4.4035,-4.4149,-4.4151,-4.404,-4.4044,-4.4047,-4.4048,0,0,0,0,0,0,0,-4.3871,-4.3883,-4.4014,-4.3964,-4.3961,-4.3939,-4.3945,-4.4018,-4.401,-4.3963,-4.3957,-4.3965,-4.4007,-4.4029,-4.4036,-4.4152,-4.404,-4.4045,-4.4049,-4.4052,-4.4372,-4.4376,0,0,0,0,0,0,-4.387,-4.388,-4.4012,-4.4015,-4.3905,-4.3946,-4.3952,-4.3988,-4.4009,-4.4008,-4.3968,-4.3961,-4.4021,-4.4029,-4.4037,-4.4187,-4.4046,-4.4052,-4.4056,-4.4367,-4.4373,-4.4378,0,0,0,0,0,0,-4.3867,-4.3883,-4.401,-4.3946,-4.3961,-4.3954,-4.3995,-4.3991,-4.4013,-4.4013,-4.4011,-4.3993,-4.4018,-4.4029,-4.412,-4.4187,-4.4055,-4.4061,-4.4361,-4.4369,-4.4375,-4.4486,0,0,0,0,0,0,-4.3862,-4.3882,-4.3931,-4.3948,-4.3964,-4.4093,-4.3999,-4.3995,-4.4024,-4.4015,-4.4035,-4.4034,-4.4015,-4.4111,-4.4126,-4.4193,-4.4066,-4.4355,-4.4365,-4.4373,-4.4476,-4.4496,-4.4513,0,0,0,0,0,-4.3856,-4.3959,-4.3934,-4.395,-4.4025,-4.4097,-4.4106,-4.4083,-4.403,-4.4079,-4.4078,-4.4034,-4.4177,-4.4121,-4.4138,-4.4208,-4.4351,-4.4362,-4.4373,-4.4468,-4.4492,-4.4512,0,0,0,0,0,0,-4.3949,-4.3961,-4.3933,-4.4045,-4.4071,-4.4083,-4.4143,-4.4109,-4.4149,-4.4138,-4.4106,-4.4112,-4.421,-4.4218,-4.4155,-4.433,-4.4255,-4.427,-4.4322,-4.4345,-4.4363,-4.436,-4.4071,0,0,0,0,0,-4.3983,-4.4041,-4.4047,-4.4146,-4.416,-4.415,-4.418,-4.416,-4.4185,-4.4195,-4.4201,-4.4227,-4.4277,-4.4311,-4.4358,-4.4476,-4.448,-4.4532,-4.4551,-4.4566,-4.4579,-4.4642,-4.4666,-4.4413,-4.4413,-4.4413,0,0,-4.4053,-4.4066,-4.4105,-4.4165,-4.4182,-4.4243,-4.4159,-4.4226,-4.4271,-4.4205,-4.4292,-4.4298,-4.4324,-4.443,-4.4476,-4.4439,-4.4649,-4.4579,-4.4591,-4.4596,-4.4656,-4.468,-4.4701,-4.442,-4.4419,-4.4418,0,0,-4.4211,-4.4227,-4.4311,-4.4331,-4.4359,-4.4351,-4.4372,-4.4389,-4.4391,-4.4478,-4.443,-4.4481,-4.4569,-4.459,-4.4612,-4.4779,-4.4739,-4.4794,-4.489,-4.4952,-4.4972,-4.499,-4.505,-4.5072,-4.4807,-4.4808,-4.4808,0,-4.4294,-4.4385,-4.4358,-4.443,-4.4457,-4.4401,-4.4485,-4.4505,-4.4547,-4.4567,-4.4524,-4.4634,-4.4647,-4.4757,-4.4798,-4.4817,-4.4839,-4.4792,-4.4972,-4.4989,-4.5005,-4.5062,-4.5084,-4.4814,-4.4813,-4.4813,-4.4812,0,-4.4486,-4.4549,-4.4613,-4.4656,-4.4691,-4.4768,-4.4753,-4.4791,-4.4767,-4.4764,-4.4853,-4.4868,-4.4916,-4.4941,-4.4918,-4.5048,-4.5024,-4.4977,-4.4901,-4.5036,-4.5089,-4.5111,-4.4824,-4.4821,-4.4819,-4.4818,0,0,-4.4705,-4.4733,-4.4757,-4.4776,-4.4803,-4.4851,-4.4925,-4.4974,-4.5008,-4.5038,-4.5099,-4.5175,-4.5132,-4.5157,-4.5136,-4.5191,-4.5323,-4.5137,-4.5138,-4.5172,-4.5467,-4.5503,-4.5528,-4.5296,-4.53,-4.5304,-4.5465,0,-4.4864,-4.4994,-4.4973,-4.5098,-4.5156,-4.5104,-4.5168,-4.5192,-4.519,-4.5238,-4.5236,-4.5291,-4.523,-4.5245,-4.5296,-4.5296,-4.5382,-4.5284,-4.5353,-4.5356,-4.535,-4.5556,-4.5594,-4.5746,-4.5485,-4.5489,-4.5491,0,-4.5067,-4.5106,-4.5239,-4.5257,-4.528,-4.5339,-4.5382,-4.5429,-4.5454,-4.5449,-4.5477,-4.5446,-4.5519,-4.5442,-4.5542,-4.5476,-4.5503,-4.5507,-4.5512,-4.5519,-4.5433,-4.5569,-4.5793,-4.5817,-4.5524,-4.5521,-4.5519,0,-4.5215,-4.53,-4.5391,-4.5409,-4.5432,-4.5475,-4.5486,-4.5507,-4.5537,-4.5574,-4.5594,-4.5639,-4.5663,-4.5698,-4.568,-4.5625,-4.5784,-4.5705,-4.5782,-4.5782,-4.5818,-4.5816,-4.6052,-4.5834,-4.5834,-4.5834,-4.5833,0,-4.5395,-4.5478,-4.5458,-4.5514,-4.5605,-4.5578,-4.5669,-4.5674,-4.5693,-4.5748,-4.5704,-4.5756,-4.5728,-4.5778,-4.5764,-4.5849,-4.586,-4.5858,-4.5854,-4.5863,-4.5864,-4.5881,-4.587,-4.584,-4.5838,-4.5837,-4.5836,0,-4.5576,-4.5566,-4.5661,-4.5675,-4.5681,-4.5748,-4.576,-4.5811,-4.5806,-4.5877,-4.5891,-4.5884,-4.594,-4.5925,-4.5986,-4.5976,-4.6085,-4.6066,-4.6077,-4.6073,-4.6151,-4.6145,-4.6407,-4.644,-4.62,-4.6203,-4.6205,0,-4.5692,-4.5755,-4.5777,-4.5811,-4.5827,-4.5882,-4.5914,-4.589,-4.5924,-4.5957,-4.6005,-4.6058,-4.6099,-4.6192,-4.6191,-4.6237,-4.622,-4.6309,-4.6227,-4.6234,-4.6222,-4.6219,-4.6226,-4.6325,-4.6328,-4.633,-4.6332,0,-4.59,-4.5892,-4.594,-4.5986,-4.6025,-4.606,-4.6091,-4.6121,-4.6099,-4.614,-4.6198,-4.623,-4.6293,-4.6346,-4.6389,-4.6399,-4.6363,-4.6358,-4.6378,-4.6389,-4.6393,-4.6393,-4.6123,-4.6352,-4.635,-4.6349,-4.6347,-4.6347,-4.6052,-4.6106,-4.613,-4.6185,-4.6206,-4.6236,-4.6285,-4.6287,-4.6336,-4.6386,-4.6368,-4.6435,-4.6457,-4.6511,-4.6527,-4.6578,-4.6544,-4.6573,-4.6581,-4.6589,-4.6599,-4.6384,-4.6585,-4.6584,-4.6584,-4.6583,-4.6583,0,-4.6258,-4.6271,-4.6322,-4.6367,-4.6411,-4.6373,-4.6405,-4.6443,-4.6503,-4.6527,-4.6569,-4.6636,-4.6687,-4.6691,-4.6738,-4.6779,-4.6763,-4.6792,-4.6789,-4.6792,-4.6626,-4.6604,-4.6804,-4.6804,-4.6804,-4.6804,-4.6804,-4.6804,-4.6371,-4.646,-4.6455,-4.6554,-4.6565,-4.6632,-4.6653,-4.668,-4.67,-4.6777,-4.682,-4.6822,-4.6838,-4.6887,-4.6932,-4.6932,-4.6952,-4.6988,-4.6981,-4.6826,-4.6804,-4.6783,-4.6762,-4.6992,-4.6992,-4.7143,-4.7144,-4.7145]}]]